Location: Ciserano
(45.5833°N, 9.6000°E)
Time: 08:05:46
(UTC+00:00)

Cosmos 1295 Rocket - Pass Details

Date: 19 April 2021
Orbit: 944 x 993 km, 82.9° (Epoch: 13 May)

Event Time Altitude Azimuth Distance (km) Brightness Sun altitude
Rises 01:19:46 0° 341° (NNW) 3,675 8.0 -27.2°
Reaches altitude 10° 01:22:40 10° 329° (NNW) 2,731 7.1 -26.9°
Enters shadow 01:26:52 25° 288° (WNW) 1,865 5.8 -26.5°
